Location: Newark
(5.8900°S, 42.6378°W)
Time: 08:28:24
(UTC+00:00)

Vanguard 1 Rocket - Pass Details

Date: 23 October 2019
Orbit: 651 x 4226 km, 34.3° (Epoch: 21 November)

Event Time Altitude Azimuth Distance (km) Brightness Sun altitude
Rises 21:50:06 0° 300° (WNW) 8,434 13.1 -17.1°
Reaches altitude 10° 21:56:23 10° 297° (WNW) 7,242 12.6 -18.6°
Maximum altitude 22:19:18 64° 219° (SW) 3,048 10.1 -24.1°
Drops below altitude 10° 22:31:38 10° 138° (SE) 4,191 10.5 -27.0°
Enters shadow 22:33:05 - 136° (SE) 4,544 10.7 -27.4°
Sets 22:34:15 0° 134° (SE) 4,842 - -27.7°
